STARLINK-36827, 67908

Orbit data source: Space-Track

STARLINK-36827, 67908 is a payload satellite owned by SpaceX/Seattle (US) in LEO that was launched on Sun, 22 Feb 2026 UTC via an FALCON 9 launch vehicle from the Air Force Eastern Test Range (AFETR). Payload-class satellites include a variety of spacecraft equipped with specific instruments for various scientific and technological missions. These include communications satellites like Starlink; space stations such as the ISS; scientific satellites like the Hubble; Earth observation satellites from companies like Planet Labs, Umbra, and HawkEye 360; GPS; miniature CubeSats for education and research; and military/defense satellites.

Loading next visibility...
Identifier
67908, 2026-036E
Orbit
LEO
Country
Flag of USUS
Related business
Manufacturer
SpaceX/Seattle
Mission
Operational spacecraft
Bus & Motor
STARLINK V2MO, Unknown motor
Mass
575 kg wet, ~530 kg dry
Launch date (UTC)
2026-02-22 (2 months ago)
Launch vehicle
FALCON 9
Launch site
Air Force Eastern Test Range (AFETR)
Object type
Payload
Rocket body
Debris
Shape & HBR
Unknown shape, 17.7 m
Radar Cross Section
RCS unknown

Expand to show TLE details & history
Last TLE update: 11 hours ago

TLE from 11 hours ago
0 STARLINK-36827
1 67908U 26036E   26104.22108743  .00007378  00000-0  27733-3 0  9997
2 67908  43.0028  44.8192 0001709 261.7991  98.2667 15.27584188  9151
Epoch: 2026-04-14T05:18Z
TLE epoch observation values (Epoch: 2026-04-14T05:18:21.953Z)
Latitude
-0.00003°
Longitude
122.82724°
Altitude
482.981 km
Speed
7.626 km/s
True Right ascension
02h 59m 16s
True Declination
0° 00' 00"
Sunlit
Object was in daylight at epoch
Visualization orbit readout
Latitude
Unknown
Longitude
Unknown
Altitude
Unknown
Speed
Unknown
Apparent Right ascension
Unknown
Apparent Declination
Unknown
Sunlit
N/A
Visualization observer readout
Local Sidereal Time
23:07:11
Azimuth
Unknown
Elevation
Unknown
Doppler factor
Unknown
Orbital elements
Apogee altitude
486.154 km
Perigee altitude
483.808 km
Semi-major axis
6,863.118 km
Eccentricity
0.00017
Inclination
43.0028°
RAAN
44.8192°
Arg. of periapsis
261.7991°
True anomaly
98.28608°
Mean anomaly
98.2667°
Eccentric anomaly
98.27639°
Mean motion
3.81734 °/min
Orbital period
94.31 mins
BSTAR
0.00027733
Loading maneuver chart data...
Computing Atmospheric mass density...
Loading historical data...
Loading historical data...
Loading historical data...
Loading historical data...
Loading historical data...
Loading historical data...
Loading historical data...

Documentation

Showing up to 5 results
|